Location: Armstrong
(40.9123°N, 82.0110°W)
Time: 08:46:36
(UTC+00:00)

Cosmos 1656 - Pass Details

Date: 29 October 2020
Orbit: 797 x 851 km, 71.1° (Epoch: 29 November)

Event Time Altitude Azimuth Distance (km) Brightness Sun altitude
Rises 23:17:17 0° 203° (SSW) 3,328 7.3 -10.1°
Reaches altitude 10° 23:19:40 10° 204° (SSW) 2,408 6.5 -10.5°
Maximum altitude 23:25:12 85° 293° (WNW) 838 3.7 -11.5°
Drops below altitude 10° 23:30:52 10° 22° (NNE) 2,461 5.8 -12.6°
Sets 23:33:20 0° 24° (NNE) 3,406 6.6 -13.1°
